Time,TemperatureF,DewpointF,PressureIn,WindDirection,WindDirectionDegrees,WindSpeedMPH,WindSpeedGustMPH,Humidity,HourlyPrecipIn,Conditions,Clouds,dailyrainin,SoftwareType,DateUTC
2013-03-04 00:00:00,32.3,20.7,29.96,NNW,348,0.0,4.0,62,0.00,,,0.00,Wunderground v.1.15,2013-03-04 05:00:00,
2013-03-04 00:10:00,31.8,20.6,29.96,NNW,348,0.0,4.0,63,0.00,,,0.00,Wunderground v.1.15,2013-03-04 05:10:00,
2013-03-04 00:20:00,31.4,20.2,29.96,NNW,348,0.0,4.0,63,0.00,,,0.00,Wunderground v.1.15,2013-03-04 05:20:00,
2013-03-04 00:25:00,31.1,20.0,29.97,NNW,348,0.0,4.0,63,0.00,,,0.00,Wunderground v.1.15,2013-03-04 05:25:00,
2013-03-04 00:30:00,30.9,19.8,29.97,NNW,348,0.0,4.0,63,0.00,,,0.00,Wunderground v.1.15,2013-03-04 05:30:00,
2013-03-04 00:35:00,30.7,20.3,29.97,NNW,348,0.0,4.0,65,0.00,,,0.00,Wunderground v.1.15,2013-03-04 05:35:00,
2013-03-04 00:40:00,30.5,20.1,29.97,NNW,348,0.0,4.0,65,0.00,,,0.00,Wunderground v.1.15,2013-03-04 05:40:00,
2013-03-04 00:45:00,30.3,20.3,29.97,NNW,348,0.0,4.0,66,0.00,,,0.00,Wunderground v.1.15,2013-03-04 05:45:00,
2013-03-04 00:50:00,30.1,20.1,29.97,NNW,348,0.0,4.0,66,0.00,,,0.00,Wunderground v.1.15,2013-03-04 05:50:00,
2013-03-04 00:55:00,29.9,19.9,29.97,NNW,348,0.0,4.0,66,0.00,,,0.00,Wunderground v.1.15,2013-03-04 05:55:00,
2013-03-04 01:00:00,29.8,20.2,29.97,NNW,348,0.0,4.0,67,0.00,,,0.00,Wunderground v.1.15,2013-03-04 06:00:00,
2013-03-04 01:05:00,29.6,20.0,29.98,NNW,348,0.0,4.0,67,0.00,,,0.00,Wunderground v.1.15,2013-03-04 06:05:00,
2013-03-04 01:15:00,29.4,19.8,29.97,NNW,348,0.0,4.0,67,0.00,,,0.00,Wunderground v.1.15,2013-03-04 06:15:00,
2013-03-04 01:20:00,29.4,19.8,29.98,NNW,348,0.0,4.0,67,0.00,,,0.00,Wunderground v.1.15,2013-03-04 06:20:00,
2013-03-04 01:25:00,29.4,20.1,29.98,NNW,348,0.0,4.0,68,0.00,,,0.00,Wunderground v.1.15,2013-03-04 06:25:00,
2013-03-04 01:30:00,29.3,20.0,29.98,NNW,348,0.0,4.0,68,0.00,,,0.00,Wunderground v.1.15,2013-03-04 06:30:00,
2013-03-04 01:35:00,29.3,20.0,29.98,NNW,348,0.0,4.0,68,0.00,,,0.00,Wunderground v.1.15,2013-03-04 06:35:00,
2013-03-04 01:45:00,29.2,19.9,29.98,NNW,348,0.0,4.0,68,0.00,,,0.00,Wunderground v.1.15,2013-03-04 06:45:00,
2013-03-04 01:50:00,29.2,20.3,29.98,NNW,348,0.0,4.0,69,0.00,,,0.00,Wunderground v.1.15,2013-03-04 06:50:00,
2013-03-04 01:55:00,29.1,20.2,29.98,NNW,348,0.0,4.0,69,0.00,,,0.00,Wunderground v.1.15,2013-03-04 06:55:00,
2013-03-04 02:00:00,29.0,20.4,29.98,NNW,348,0.0,4.0,70,0.00,,,0.00,Wunderground v.1.15,2013-03-04 07:00:00,
2013-03-04 02:05:00,28.9,20.3,29.98,NNW,348,0.0,4.0,70,0.00,,,0.00,Wunderground v.1.15,2013-03-04 07:05:00,
2013-03-04 02:15:00,28.8,19.9,29.98,NNW,348,0.0,4.0,69,0.00,,,0.00,Wunderground v.1.15,2013-03-04 07:15:00,
2013-03-04 02:20:00,28.7,19.8,29.98,NNW,348,0.0,4.0,69,0.00,,,0.00,Wunderground v.1.15,2013-03-04 07:20:00,
2013-03-04 02:25:00,28.6,20.1,29.98,NNW,348,0.0,4.0,70,0.00,,,0.00,Wunderground v.1.15,2013-03-04 07:25:00,
2013-03-04 02:30:00,28.6,20.4,29.98,NNW,348,0.0,4.0,71,0.00,,,0.00,Wunderground v.1.15,2013-03-04 07:30:00,
2013-03-04 02:35:00,28.5,20.0,29.98,NNW,348,0.0,4.0,70,0.00,,,0.00,Wunderground v.1.15,2013-03-04 07:35:00,
2013-03-04 02:45:00,28.4,19.5,29.98,NNW,348,0.0,4.0,69,0.00,,,0.00,Wunderground v.1.15,2013-03-04 07:45:00,
2013-03-04 02:50:00,28.3,19.4,29.99,NNW,348,0.0,4.0,69,0.00,,,0.00,Wunderground v.1.15,2013-03-04 07:50:00,
2013-03-04 02:55:00,28.3,19.4,29.99,NNW,348,0.0,4.0,69,0.00,,,0.00,Wunderground v.1.15,2013-03-04 07:55:00,
2013-03-04 03:00:00,28.2,19.3,29.99,NNW,348,0.0,4.0,69,0.00,,,0.00,Wunderground v.1.15,2013-03-04 08:00:00,
2013-03-04 03:05:00,28.2,19.3,29.99,NNW,348,0.0,4.0,69,0.00,,,0.00,Wunderground v.1.15,2013-03-04 08:05:00,
2013-03-04 03:10:00,28.2,19.0,29.99,NNW,348,0.0,4.0,68,0.00,,,0.00,Wunderground v.1.15,2013-03-04 08:10:00,
2013-03-04 03:20:00,28.2,18.6,29.99,North,360,0.0,4.0,67,0.00,,,0.00,Wunderground v.1.15,2013-03-04 08:20:00,
2013-03-04 03:25:00,28.3,18.4,30.00,North,5,0.0,4.0,66,0.00,,,0.00,Wunderground v.1.15,2013-03-04 08:25:00,
2013-03-04 03:30:00,28.3,18.4,30.00,NNW,332,0.0,4.0,66,0.00,,,0.00,Wunderground v.1.15,2013-03-04 08:30:00,
2013-03-04 03:35:00,28.4,18.1,30.00,NNW,333,0.0,4.0,65,0.00,,,0.00,Wunderground v.1.15,2013-03-04 08:35:00,
2013-03-04 03:40:00,28.5,17.9,30.00,North,360,0.0,4.0,64,0.00,,,0.00,Wunderground v.1.15,2013-03-04 08:40:00,
2013-03-04 03:50:00,28.7,17.7,30.00,NNW,344,0.0,4.0,63,0.00,,,0.00,Wunderground v.1.15,2013-03-04 08:50:00,
2013-03-04 03:55:00,28.8,17.8,30.00,NNW,344,0.0,4.0,63,0.00,,,0.00,Wunderground v.1.15,2013-03-04 08:55:00,
2013-03-04 04:00:00,28.9,17.9,30.01,North,350,0.0,4.0,63,0.00,,,0.00,Wunderground v.1.15,2013-03-04 09:00:00,
2013-03-04 04:05:00,29.0,18.0,30.00,North,360,0.0,4.0,63,0.00,,,0.00,Wunderground v.1.15,2013-03-04 09:05:00,
2013-03-04 04:10:00,29.0,17.6,30.01,North,5,0.0,4.0,62,0.00,,,0.00,Wunderground v.1.15,2013-03-04 09:10:00,
2013-03-04 04:20:00,29.0,17.6,30.01,North,5,0.0,4.0,62,0.00,,,0.00,Wunderground v.1.15,2013-03-04 09:20:00,
2013-03-04 04:25:00,28.9,17.5,30.01,North,5,0.0,4.0,62,0.00,,,0.00,Wunderground v.1.15,2013-03-04 09:25:00,
2013-03-04 04:30:00,28.9,17.9,30.01,North,360,0.0,4.0,63,0.00,,,0.00,Wunderground v.1.15,2013-03-04 09:30:00,
2013-03-04 04:35:00,28.8,17.8,30.02,North,360,0.0,4.0,63,0.00,,,0.00,Wunderground v.1.15,2013-03-04 09:35:00,
2013-03-04 04:40:00,28.8,17.8,30.01,North,360,0.0,4.0,63,0.00,,,0.00,Wunderground v.1.15,2013-03-04 09:40:00,
2013-03-04 04:50:00,28.7,17.7,30.02,North,360,0.0,4.0,63,0.00,,,0.00,Wunderground v.1.15,2013-03-04 09:50:00,
2013-03-04 04:55:00,28.6,17.6,30.02,North,360,0.0,4.0,63,0.00,,,0.00,Wunderground v.1.15,2013-03-04 09:55:00,
2013-03-04 05:00:00,28.5,17.9,30.02,North,360,0.0,4.0,64,0.00,,,0.00,Wunderground v.1.15,2013-03-04 10:00:00,
2013-03-04 05:05:00,28.4,17.8,30.03,North,360,0.0,4.0,64,0.00,,,0.00,Wunderground v.1.15,2013-03-04 10:05:00,
2013-03-04 05:10:00,28.3,17.7,30.03,North,360,0.0,4.0,64,0.00,,,0.00,Wunderground v.1.15,2013-03-04 10:10:00,
2013-03-04 05:15:00,28.2,17.9,30.03,North,360,0.0,4.0,65,0.00,,,0.00,Wunderground v.1.15,2013-03-04 10:15:00,
2013-03-04 05:25:00,28.0,17.7,30.03,North,360,0.0,4.0,65,0.00,,,0.00,Wunderground v.1.15,2013-03-04 10:25:00,
2013-03-04 05:30:00,27.9,18.0,30.04,North,360,0.0,4.0,66,0.00,,,0.00,Wunderground v.1.15,2013-03-04 10:30:00,
2013-03-04 05:35:00,27.8,17.9,30.04,North,360,0.0,4.0,66,0.00,,,0.00,Wunderground v.1.15,2013-03-04 10:35:00,
2013-03-04 05:40:00,27.7,17.8,30.04,North,360,0.0,4.0,66,0.00,,,0.00,Wunderground v.1.15,2013-03-04 10:40:00,
2013-03-04 05:45:00,27.6,17.7,30.04,North,360,0.0,4.0,66,0.00,,,0.00,Wunderground v.1.15,2013-03-04 10:45:00,
2013-03-04 05:55:00,27.4,17.9,30.05,North,360,0.0,4.0,67,0.00,,,0.00,Wunderground v.1.15,2013-03-04 10:55:00,
2013-03-04 06:00:00,27.3,17.4,30.05,North,360,0.0,4.0,66,0.00,,,0.00,Wunderground v.1.15,2013-03-04 11:00:00,
2013-03-04 06:05:00,27.2,17.7,30.06,North,360,0.0,4.0,67,0.00,,,0.00,Wunderground v.1.15,2013-03-04 11:05:00,
2013-03-04 06:10:00,27.1,17.6,30.06,North,360,0.0,4.0,67,0.00,,,0.00,Wunderground v.1.15,2013-03-04 11:10:00,
2013-03-04 06:15:00,27.1,17.2,30.06,North,360,0.0,4.0,66,0.00,,,0.00,Wunderground v.1.15,2013-03-04 11:15:00,
2013-03-04 06:25:00,26.9,17.0,30.06,North,360,0.0,4.0,66,0.00,,,0.00,Wunderground v.1.15,2013-03-04 11:25:00,
2013-03-04 06:30:00,26.8,17.0,30.07,North,360,0.0,4.0,66,0.00,,,0.00,Wunderground v.1.15,2013-03-04 11:30:00,
2013-03-04 06:35:00,26.7,16.9,30.07,North,360,0.0,4.0,66,0.00,,,0.00,Wunderground v.1.15,2013-03-04 11:35:00,
2013-03-04 06:40:00,26.7,17.2,30.07,North,360,0.0,4.0,67,0.00,,,0.00,Wunderground v.1.15,2013-03-04 11:40:00,
2013-03-04 06:45:00,26.6,16.8,30.07,North,360,0.0,4.0,66,0.00,,,0.00,Wunderground v.1.15,2013-03-04 11:45:00,
2013-03-04 06:50:00,26.6,16.8,30.07,North,360,0.0,4.0,66,0.00,,,0.00,Wunderground v.1.15,2013-03-04 11:50:00,
2013-03-04 07:00:00,26.5,16.7,30.08,North,360,0.0,4.0,66,0.00,,,0.00,Wunderground v.1.15,2013-03-04 12:00:00,
2013-03-04 07:05:00,26.4,16.9,30.08,North,360,0.0,4.0,67,0.00,,,0.00,Wunderground v.1.15,2013-03-04 12:05:00,
2013-03-04 07:10:00,26.4,16.9,30.08,North,360,0.0,4.0,67,0.00,,,0.00,Wunderground v.1.15,2013-03-04 12:10:00,
2013-03-04 07:15:00,26.4,16.9,30.08,North,360,0.0,4.0,67,0.00,,,0.00,Wunderground v.1.15,2013-03-04 12:15:00,
2013-03-04 07:20:00,26.4,16.9,30.08,North,360,0.0,4.0,67,0.00,,,0.00,Wunderground v.1.15,2013-03-04 12:20:00,
2013-03-04 07:30:00,26.5,17.0,30.09,North,360,0.0,4.0,67,0.00,,,0.00,Wunderground v.1.15,2013-03-04 12:30:00,
2013-03-04 07:35:00,26.6,17.1,30.09,North,360,0.0,4.0,67,0.00,,,0.00,Wunderground v.1.15,2013-03-04 12:35:00,
2013-03-04 07:40:00,26.7,17.2,30.09,North,360,0.0,4.0,67,0.00,,,0.00,Wunderground v.1.15,2013-03-04 12:40:00,
2013-03-04 07:45:00,26.9,17.4,30.09,North,360,0.0,4.0,67,0.00,,,0.00,Wunderground v.1.15,2013-03-04 12:45:00,
2013-03-04 07:50:00,27.0,17.5,30.10,North,360,0.0,4.0,67,0.00,,,0.00,Wunderground v.1.15,2013-03-04 12:50:00,
2013-03-04 08:00:00,27.6,17.7,30.10,North,360,0.0,4.0,66,0.00,,,0.00,Wunderground v.1.15,2013-03-04 13:00:00,
2013-03-04 08:05:00,28.3,18.4,30.10,North,360,0.0,4.0,66,0.00,,,0.00,Wunderground v.1.15,2013-03-04 13:05:00,
2013-03-04 08:10:00,29.3,18.6,30.11,North,360,0.0,4.0,64,0.00,,,0.00,Wunderground v.1.15,2013-03-04 13:10:00,
2013-03-04 08:15:00,29.9,19.2,30.11,North,360,0.0,4.0,64,0.00,,,0.00,Wunderground v.1.15,2013-03-04 13:15:00,
2013-03-04 08:20:00,30.6,19.1,30.11,North,360,0.0,4.0,62,0.00,,,0.00,Wunderground v.1.15,2013-03-04 13:20:00,
2013-03-04 08:30:00,30.9,19.0,30.11,NW,310,0.0,4.0,61,0.00,,,0.00,Wunderground v.1.15,2013-03-04 13:30:00,
2013-03-04 08:35:00,31.1,19.6,30.11,SW,232,0.0,4.0,62,0.00,,,0.00,Wunderground v.1.15,2013-03-04 13:35:00,
2013-03-04 08:40:00,31.5,19.6,30.11,SW,232,0.0,4.0,61,0.00,,,0.00,Wunderground v.1.15,2013-03-04 13:40:00,
2013-03-04 08:45:00,32.0,19.7,30.11,SW,233,0.0,4.0,60,0.00,,,0.00,Wunderground v.1.15,2013-03-04 13:45:00,
2013-03-04 08:50:00,32.2,19.5,30.11,North,10,0.0,4.0,59,0.00,,,0.00,Wunderground v.1.15,2013-03-04 13:50:00,
2013-03-04 08:55:00,32.6,19.4,30.11,North,11,0.0,4.0,58,0.00,,,0.00,Wunderground v.1.15,2013-03-04 13:55:00,
2013-03-04 09:05:00,33.7,19.7,30.11,NNW,329,1.0,4.0,56,0.00,,,0.00,Wunderground v.1.15,2013-03-04 14:05:00,
2013-03-04 09:10:00,34.4,19.5,30.11,NNW,332,0.0,4.0,54,0.00,,,0.00,Wunderground v.1.15,2013-03-04 14:10:00,
2013-03-04 09:15:00,34.5,18.7,30.11,North,5,0.0,4.0,52,0.00,,,0.00,Wunderground v.1.15,2013-03-04 14:15:00,
2013-03-04 09:20:00,34.8,19.4,30.11,NNW,342,0.0,4.0,53,0.00,,,0.00,Wunderground v.1.15,2013-03-04 14:20:00,
2013-03-04 09:25:00,34.9,19.0,30.11,NNE,17,1.0,4.0,52,0.00,,,0.00,Wunderground v.1.15,2013-03-04 14:25:00,
2013-03-04 09:35:00,35.1,19.2,30.11,NW,304,1.0,4.0,52,0.00,,,0.00,Wunderground v.1.15,2013-03-04 14:35:00,
2013-03-04 09:40:00,35.3,19.4,30.11,North,360,1.0,4.0,52,0.00,,,0.00,Wunderground v.1.15,2013-03-04 14:40:00,
2013-03-04 09:45:00,35.4,18.6,30.10,NNE,16,1.0,4.0,50,0.00,,,0.00,Wunderground v.1.15,2013-03-04 14:45:00,
2013-03-04 09:55:00,36.5,19.1,30.10,NNW,344,1.0,4.0,49,0.00,,,0.00,Wunderground v.1.15,2013-03-04 14:55:00,
2013-03-04 10:05:00,36.8,17.9,30.10,NNE,16,1.0,4.0,46,0.00,,,0.00,Wunderground v.1.15,2013-03-04 15:05:00,
2013-03-04 10:10:00,37.4,18.0,30.10,NNE,32,1.0,4.0,45,0.00,,,0.00,Wunderground v.1.15,2013-03-04 15:10:00,
2013-03-04 10:15:00,37.9,18.9,30.10,North,5,0.0,4.0,46,0.00,,,0.00,Wunderground v.1.15,2013-03-04 15:15:00,
2013-03-04 10:25:00,38.0,18.0,30.10,North,355,1.0,4.0,44,0.00,,,0.00,Wunderground v.1.15,2013-03-04 15:25:00,
2013-03-04 10:35:00,38.0,18.0,30.10,North,355,2.0,4.0,44,0.00,,,0.00,Wunderground v.1.15,2013-03-04 15:35:00,
2013-03-04 10:45:00,38.6,18.5,30.10,North,9,1.0,4.0,44,0.00,,,0.00,Wunderground v.1.15,2013-03-04 15:45:00,
2013-03-04 10:50:00,38.8,18.2,30.09,WNW,286,1.0,4.0,43,0.00,,,0.00,Wunderground v.1.15,2013-03-04 15:50:00,
2013-03-04 10:55:00,38.9,18.3,30.10,NNW,334,2.0,4.0,43,0.00,,,0.00,Wunderground v.1.15,2013-03-04 15:55:00,
2013-03-04 11:00:00,39.2,18.0,30.10,NW,307,2.0,2.0,42,0.00,,,0.00,Wunderground v.1.15,2013-03-04 16:00:00,
2013-03-04 11:05:00,39.6,17.8,30.09,North,5,1.0,4.0,41,0.00,,,0.00,Wunderground v.1.15,2013-03-04 16:05:00,
2013-03-04 11:10:00,39.7,17.3,30.09,NNW,344,1.0,4.0,40,0.00,,,0.00,Wunderground v.1.15,2013-03-04 16:10:00,
2013-03-04 11:15:00,40.0,17.0,30.09,NW,313,1.0,4.0,39,0.00,,,0.00,Wunderground v.1.15,2013-03-04 16:15:00,
2013-03-04 11:20:00,40.1,18.3,30.09,North,355,1.0,4.0,41,0.00,,,0.00,Wunderground v.1.15,2013-03-04 16:20:00,
2013-03-04 11:25:00,40.6,18.7,30.09,NNW,346,1.0,4.0,41,0.00,,,0.00,Wunderground v.1.15,2013-03-04 16:25:00,
2013-03-04 11:30:00,41.0,17.9,30.08,NW,325,2.0,2.0,39,0.00,,,0.00,Wunderground v.1.15,2013-03-04 16:30:00,
2013-03-04 11:40:00,41.1,18.0,30.08,North,9,2.0,4.0,39,0.00,,,0.00,Wunderground v.1.15,2013-03-04 16:40:00,
2013-03-04 11:45:00,41.3,17.6,30.08,NW,318,2.0,4.0,38,0.00,,,0.00,Wunderground v.1.15,2013-03-04 16:45:00,
2013-03-04 11:50:00,42.0,18.2,30.07,NE,40,1.0,4.0,38,0.00,,,0.00,Wunderground v.1.15,2013-03-04 16:50:00,
2013-03-04 11:55:00,42.4,17.3,30.07,North,360,1.0,4.0,36,0.00,,,0.00,Wunderground v.1.15,2013-03-04 16:55:00,
2013-03-04 12:00:00,42.5,17.4,30.07,North,11,1.0,1.0,36,0.00,,,0.00,Wunderground v.1.15,2013-03-04 17:00:00,
2013-03-04 12:05:00,42.9,17.1,30.07,NW,326,1.0,4.0,35,0.00,,,0.00,Wunderground v.1.15,2013-03-04 17:05:00,
2013-03-04 12:15:00,43.6,19.0,30.07,NE,36,2.0,2.0,37,0.00,,,0.00,Wunderground v.1.15,2013-03-04 17:15:00,
2013-03-04 12:20:00,44.6,19.3,30.06,North,355,1.0,2.0,36,0.00,,,0.00,Wunderground v.1.15,2013-03-04 17:20:00,
2013-03-04 12:25:00,43.9,18.0,30.06,North,351,1.0,1.0,35,0.00,,,0.00,Wunderground v.1.15,2013-03-04 17:25:00,
2013-03-04 12:30:00,45.4,20.0,30.06,North,360,1.0,1.0,36,0.00,,,0.00,Wunderground v.1.15,2013-03-04 17:30:00,
2013-03-04 12:35:00,45.8,19.0,30.06,NNW,327,0.0,0.0,34,0.00,,,0.00,Wunderground v.1.15,2013-03-04 17:35:00,
2013-03-04 12:40:00,45.9,18.4,30.06,NW,311,1.0,1.0,33,0.00,,,0.00,Wunderground v.1.15,2013-03-04 17:40:00,
2013-03-04 12:45:00,45.7,19.6,30.06,North,355,1.0,1.0,35,0.00,,,0.00,Wunderground v.1.15,2013-03-04 17:45:00,
2013-03-04 12:50:00,45.9,19.1,30.05,NNW,340,1.0,3.0,34,0.00,,,0.00,Wunderground v.1.15,2013-03-04 17:50:00,
2013-03-04 13:00:00,46.2,17.9,30.05,North,9,1.0,1.0,32,0.00,,,0.00,Wunderground v.1.15,2013-03-04 18:00:00,
2013-03-04 13:05:00,46.0,19.2,30.05,North,10,1.0,2.0,34,0.00,,,0.00,Wunderground v.1.15,2013-03-04 18:05:00,
2013-03-04 13:15:00,46.4,19.5,30.05,North,349,2.0,5.0,34,0.00,,,0.00,Wunderground v.1.15,2013-03-04 18:15:00,
2013-03-04 13:20:00,46.3,18.0,30.05,ESE,110,1.0,1.0,32,0.00,,,0.00,Wunderground v.1.15,2013-03-04 18:20:00,
2013-03-04 13:25:00,46.7,18.4,30.04,NNE,13,1.0,6.0,32,0.00,,,0.00,Wunderground v.1.15,2013-03-04 18:25:00,
2013-03-04 13:30:00,47.1,19.4,30.03,South,173,1.0,1.0,33,0.00,,,0.00,Wunderground v.1.15,2013-03-04 18:30:00,
2013-03-04 13:35:00,47.6,19.2,30.03,South,180,1.0,6.0,32,0.00,,,0.00,Wunderground v.1.15,2013-03-04 18:35:00,
2013-03-04 13:40:00,47.6,18.4,30.03,NW,319,1.0,6.0,31,0.00,,,0.00,Wunderground v.1.15,2013-03-04 18:40:00,
2013-03-04 13:45:00,47.7,17.7,30.03,NNE,15,1.0,6.0,30,0.00,,,0.00,Wunderground v.1.15,2013-03-04 18:45:00,
2013-03-04 13:50:00,47.6,17.6,30.03,NNE,24,2.0,6.0,30,0.00,,,0.00,Wunderground v.1.15,2013-03-04 18:50:00,
2013-03-04 14:00:00,47.6,17.6,30.02,NE,44,1.0,1.0,30,0.00,,,0.00,Wunderground v.1.15,2013-03-04 19:00:00,
2013-03-04 14:05:00,47.8,17.8,30.03,NNW,346,1.0,5.0,30,0.00,,,0.00,Wunderground v.1.15,2013-03-04 19:05:00,
2013-03-04 14:10:00,47.8,17.8,30.02,NE,39,2.0,2.0,30,0.00,,,0.00,Wunderground v.1.15,2013-03-04 19:10:00,
2013-03-04 14:20:00,48.3,19.0,30.02,NNW,340,1.0,6.0,31,0.00,,,0.00,Wunderground v.1.15,2013-03-04 19:20:00,
2013-03-04 14:25:00,48.8,19.5,30.02,NNE,13,1.0,6.0,31,0.00,,,0.00,Wunderground v.1.15,2013-03-04 19:25:00,
2013-03-04 14:35:00,49.3,19.1,30.02,NNE,12,1.0,6.0,30,0.00,,,0.00,Wunderground v.1.15,2013-03-04 19:35:00,
2013-03-04 14:40:00,49.3,19.1,30.02,North,5,1.0,6.0,30,0.00,,,0.00,Wunderground v.1.15,2013-03-04 19:40:00,
2013-03-04 14:45:00,49.2,19.0,30.02,North,9,1.0,6.0,30,0.00,,,0.00,Wunderground v.1.15,2013-03-04 19:45:00,
2013-03-04 14:50:00,49.2,19.0,30.02,North,360,1.0,6.0,30,0.00,,,0.00,Wunderground v.1.15,2013-03-04 19:50:00,
2013-03-04 14:55:00,49.4,20.0,30.02,North,360,1.0,6.0,31,0.00,,,0.00,Wunderground v.1.15,2013-03-04 19:55:00,
2013-03-04 15:05:00,49.9,19.7,30.01,North,360,1.0,6.0,30,0.00,,,0.00,Wunderground v.1.15,2013-03-04 20:05:00,
2013-03-04 15:10:00,50.1,19.0,30.01,NW,322,1.0,6.0,29,0.00,,,0.00,Wunderground v.1.15,2013-03-04 20:10:00,
2013-03-04 15:15:00,49.9,19.7,30.01,North,360,1.0,6.0,30,0.00,,,0.00,Wunderground v.1.15,2013-03-04 20:15:00,
2013-03-04 15:20:00,50.0,18.9,30.00,NW,313,1.0,1.0,29,0.00,,,0.00,Wunderground v.1.15,2013-03-04 20:20:00,
2013-03-04 15:25:00,50.1,20.6,30.01,NNW,333,0.0,6.0,31,0.00,,,0.00,Wunderground v.1.15,2013-03-04 20:25:00,
2013-03-04 15:30:00,50.2,19.1,30.00,North,10,0.0,6.0,29,0.00,,,0.00,Wunderground v.1.15,2013-03-04 20:30:00,
2013-03-04 15:40:00,49.9,18.9,30.01,North,360,1.0,6.0,29,0.00,,,0.00,Wunderground v.1.15,2013-03-04 20:40:00,
2013-03-04 15:45:00,49.8,19.6,30.01,NNW,344,1.0,6.0,30,0.00,,,0.00,Wunderground v.1.15,2013-03-04 20:45:00,
2013-03-04 15:50:00,49.8,19.6,30.01,NW,315,1.0,1.0,30,0.00,,,0.00,Wunderground v.1.15,2013-03-04 20:50:00,
2013-03-04 15:55:00,49.8,19.6,30.01,North,360,0.0,6.0,30,0.00,,,0.00,Wunderground v.1.15,2013-03-04 20:55:00,
2013-03-04 16:00:00,49.8,20.3,30.01,North,355,0.0,6.0,31,0.00,,,0.00,Wunderground v.1.15,2013-03-04 21:00:00,
2013-03-04 16:05:00,49.8,19.6,30.01,NNW,344,0.0,6.0,30,0.00,,,0.00,Wunderground v.1.15,2013-03-04 21:05:00,
2013-03-04 16:10:00,49.9,19.7,30.01,NE,41,1.0,6.0,30,0.00,,,0.00,Wunderground v.1.15,2013-03-04 21:10:00,
2013-03-04 16:15:00,49.8,19.6,30.01,NE,40,1.0,6.0,30,0.00,,,0.00,Wunderground v.1.15,2013-03-04 21:15:00,
2013-03-04 16:20:00,49.8,19.6,30.01,WNW,290,0.0,6.0,30,0.00,,,0.00,Wunderground v.1.15,2013-03-04 21:20:00,
2013-03-04 16:25:00,49.8,19.6,30.01,North,355,0.0,6.0,30,0.00,,,0.00,Wunderground v.1.15,2013-03-04 21:25:00,
2013-03-04 16:30:00,49.8,19.6,30.01,North,355,0.0,6.0,30,0.00,,,0.00,Wunderground v.1.15,2013-03-04 21:30:00,
2013-03-04 16:40:00,50.0,19.7,30.01,NNW,344,0.0,6.0,30,0.00,,,0.00,Wunderground v.1.15,2013-03-04 21:40:00,
2013-03-04 16:45:00,50.0,19.7,30.01,SSE,163,0.0,6.0,30,0.00,,,0.00,Wunderground v.1.15,2013-03-04 21:45:00,
2013-03-04 16:50:00,50.0,19.7,30.01,North,360,0.0,6.0,30,0.00,,,0.00,Wunderground v.1.15,2013-03-04 21:50:00,
2013-03-04 16:55:00,50.1,20.6,30.02,NE,53,0.0,6.0,31,0.00,,,0.00,Wunderground v.1.15,2013-03-04 21:55:00,
2013-03-04 17:00:00,50.0,20.5,30.02,NE,52,0.0,6.0,31,0.00,,,0.00,Wunderground v.1.15,2013-03-04 22:00:00,
2013-03-04 17:05:00,50.0,20.5,30.02,WNW,290,0.0,6.0,31,0.00,,,0.00,Wunderground v.1.15,2013-03-04 22:05:00,
2013-03-04 17:15:00,49.9,20.4,30.01,WNW,290,0.0,6.0,31,0.00,,,0.00,Wunderground v.1.15,2013-03-04 22:15:00,
2013-03-04 17:20:00,49.9,20.4,30.01,WNW,290,0.0,6.0,31,0.00,,,0.00,Wunderground v.1.15,2013-03-04 22:20:00,
2013-03-04 17:25:00,49.8,20.3,30.02,South,182,0.0,6.0,31,0.00,,,0.00,Wunderground v.1.15,2013-03-04 22:25:00,
2013-03-04 17:30:00,49.7,20.2,30.01,ENE,63,0.0,6.0,31,0.00,,,0.00,Wunderground v.1.15,2013-03-04 22:30:00,
2013-03-04 17:35:00,49.6,20.9,30.02,ENE,63,0.0,6.0,32,0.00,,,0.00,Wunderground v.1.15,2013-03-04 22:35:00,
2013-03-04 17:40:00,49.5,20.8,30.02,ENE,63,0.0,6.0,32,0.00,,,0.00,Wunderground v.1.15,2013-03-04 22:40:00,
2013-03-04 17:45:00,49.4,21.5,30.02,ENE,63,0.0,6.0,33,0.00,,,0.00,Wunderground v.1.15,2013-03-04 22:45:00,
2013-03-04 17:50:00,49.2,21.3,30.03,ENE,63,0.0,6.0,33,0.00,,,0.00,Wunderground v.1.15,2013-03-04 22:50:00,
2013-03-04 17:55:00,49.1,21.2,30.03,ENE,63,0.0,6.0,33,0.00,,,0.00,Wunderground v.1.15,2013-03-04 22:55:00,
2013-03-04 18:00:00,49.0,21.1,30.03,ENE,63,0.0,6.0,33,0.00,,,0.00,Wunderground v.1.15,2013-03-04 23:00:00,
2013-03-04 18:05:00,48.8,20.9,30.03,ENE,63,0.0,6.0,33,0.00,,,0.00,Wunderground v.1.15,2013-03-04 23:05:00,
2013-03-04 18:15:00,48.5,22.1,30.03,ENE,63,0.0,6.0,35,0.00,,,0.00,Wunderground v.1.15,2013-03-04 23:15:00,
2013-03-04 18:20:00,48.3,22.5,30.03,ENE,63,0.0,6.0,36,0.00,,,0.00,Wunderground v.1.15,2013-03-04 23:20:00,
2013-03-04 18:25:00,48.0,22.3,30.03,ENE,63,0.0,6.0,36,0.00,,,0.00,Wunderground v.1.15,2013-03-04 23:25:00,
2013-03-04 18:30:00,47.6,23.2,30.03,ENE,63,0.0,6.0,38,0.00,,,0.00,Wunderground v.1.15,2013-03-04 23:30:00,
2013-03-04 18:35:00,47.2,22.9,30.04,ENE,63,0.0,6.0,38,0.00,,,0.00,Wunderground v.1.15,2013-03-04 23:35:00,
2013-03-04 18:40:00,46.7,23.6,30.04,ENE,63,0.0,6.0,40,0.00,,,0.00,Wunderground v.1.15,2013-03-04 23:40:00,
2013-03-04 18:45:00,46.1,23.1,30.04,ENE,63,0.0,6.0,40,0.00,,,0.00,Wunderground v.1.15,2013-03-04 23:45:00,
2013-03-04 18:50:00,45.7,23.9,30.05,ENE,63,0.0,6.0,42,0.00,,,0.00,Wunderground v.1.15,2013-03-04 23:50:00,
2013-03-04 18:55:00,45.2,24.0,30.05,ENE,63,0.0,6.0,43,0.00,,,0.00,Wunderground v.1.15,2013-03-04 23:55:00,
2013-03-04 19:00:00,44.8,24.2,30.05,ENE,63,0.0,6.0,44,0.00,,,0.00,Wunderground v.1.15,2013-03-05 00:00:00,
2013-03-04 19:05:00,44.4,23.8,30.05,ENE,63,0.0,6.0,44,0.00,,,0.00,Wunderground v.1.15,2013-03-05 00:05:00,
2013-03-04 19:10:00,44.0,24.0,30.05,ENE,63,0.0,6.0,45,0.00,,,0.00,Wunderground v.1.15,2013-03-05 00:10:00,
2013-03-04 19:20:00,43.3,23.4,30.05,ENE,63,0.0,6.0,45,0.00,,,0.00,Wunderground v.1.15,2013-03-05 00:20:00,
2013-03-04 19:25:00,43.1,23.2,30.04,ENE,63,0.0,6.0,45,0.00,,,0.00,Wunderground v.1.15,2013-03-05 00:25:00,
2013-03-04 19:30:00,42.9,23.5,30.05,ENE,63,0.0,6.0,46,0.00,,,0.00,Wunderground v.1.15,2013-03-05 00:30:00,
2013-03-04 19:35:00,42.6,23.2,30.05,ENE,63,0.0,6.0,46,0.00,,,0.00,Wunderground v.1.15,2013-03-05 00:35:00,
2013-03-04 19:40:00,42.3,24.0,30.05,ENE,63,0.0,6.0,48,0.00,,,0.00,Wunderground v.1.15,2013-03-05 00:40:00,
2013-03-04 19:45:00,41.9,24.6,30.05,ENE,63,0.0,6.0,50,0.00,,,0.00,Wunderground v.1.15,2013-03-05 00:45:00,
2013-03-04 19:50:00,41.5,24.7,30.05,ENE,63,0.0,6.0,51,0.00,,,0.00,Wunderground v.1.15,2013-03-05 00:50:00,
2013-03-04 19:55:00,41.2,24.9,30.06,ENE,63,0.0,6.0,52,0.00,,,0.00,Wunderground v.1.15,2013-03-05 00:55:00,
2013-03-04 20:00:00,40.9,25.1,30.06,ENE,63,0.0,6.0,53,0.00,,,0.00,Wunderground v.1.15,2013-03-05 01:00:00,
2013-03-04 20:05:00,40.6,24.3,30.06,ENE,63,0.0,6.0,52,0.00,,,0.00,Wunderground v.1.15,2013-03-05 01:05:00,
2013-03-04 20:10:00,40.4,24.6,30.06,ENE,63,0.0,6.0,53,0.00,,,0.00,Wunderground v.1.15,2013-03-05 01:10:00,
2013-03-04 20:20:00,39.8,23.6,30.07,SSE,153,0.0,6.0,52,0.00,,,0.00,Wunderground v.1.15,2013-03-05 01:20:00,
2013-03-04 20:25:00,39.5,23.8,30.07,SSE,153,0.0,6.0,53,0.00,,,0.00,Wunderground v.1.15,2013-03-05 01:25:00,
2013-03-04 20:30:00,39.3,24.0,30.07,SSE,152,0.0,6.0,54,0.00,,,0.00,Wunderground v.1.15,2013-03-05 01:30:00,
2013-03-04 20:35:00,39.0,24.2,30.07,SSE,152,0.0,6.0,55,0.00,,,0.00,Wunderground v.1.15,2013-03-05 01:35:00,
2013-03-04 20:40:00,38.8,23.6,30.07,SSE,153,0.0,6.0,54,0.00,,,0.00,Wunderground v.1.15,2013-03-05 01:40:00,
2013-03-04 20:45:00,38.6,22.9,30.07,SSE,153,0.0,6.0,53,0.00,,,0.00,Wunderground v.1.15,2013-03-05 01:45:00,
2013-03-04 20:50:00,38.5,22.8,30.07,SSE,152,0.0,6.0,53,0.00,,,0.00,Wunderground v.1.15,2013-03-05 01:50:00,
2013-03-04 21:00:00,38.3,22.6,30.06,SSE,152,0.0,6.0,53,0.00,,,0.00,Wunderground v.1.15,2013-03-05 02:00:00,
2013-03-04 21:05:00,38.2,22.1,30.06,SSE,153,0.0,6.0,52,0.00,,,0.00,Wunderground v.1.15,2013-03-05 02:05:00,
2013-03-04 21:10:00,38.0,22.4,30.06,SSE,153,0.0,6.0,53,0.00,,,0.00,Wunderground v.1.15,2013-03-05 02:10:00,
2013-03-04 21:15:00,38.0,22.4,30.06,SSE,153,0.0,6.0,53,0.00,,,0.00,Wunderground v.1.15,2013-03-05 02:15:00,
2013-03-04 21:20:00,37.9,22.3,30.06,SSE,153,0.0,6.0,53,0.00,,,0.00,Wunderground v.1.15,2013-03-05 02:20:00,
2013-03-04 21:25:00,37.8,22.2,30.06,SSE,153,0.0,6.0,53,0.00,,,0.00,Wunderground v.1.15,2013-03-05 02:25:00,
2013-03-04 21:30:00,37.8,22.6,30.07,SSE,153,0.0,6.0,54,0.00,,,0.00,Wunderground v.1.15,2013-03-05 02:30:00,
2013-03-04 21:35:00,37.7,22.5,30.07,SSE,153,0.0,6.0,54,0.00,,,0.00,Wunderground v.1.15,2013-03-05 02:35:00,
2013-03-04 21:40:00,37.6,22.0,30.07,SSE,153,0.0,6.0,53,0.00,,,0.00,Wunderground v.1.15,2013-03-05 02:40:00,
2013-03-04 21:45:00,37.5,22.3,30.07,SSE,153,0.0,6.0,54,0.00,,,0.00,Wunderground v.1.15,2013-03-05 02:45:00,
2013-03-04 21:55:00,37.3,22.2,30.07,SSE,153,0.0,6.0,54,0.00,,,0.00,Wunderground v.1.15,2013-03-05 02:55:00,
2013-03-04 22:00:00,37.2,22.5,30.07,SSE,153,0.0,6.0,55,0.00,,,0.00,Wunderground v.1.15,2013-03-05 03:00:00,
2013-03-04 22:05:00,37.0,21.9,30.07,SSE,153,0.0,6.0,54,0.00,,,0.00,Wunderground v.1.15,2013-03-05 03:05:00,
2013-03-04 22:10:00,36.9,21.8,30.07,SSE,153,0.0,6.0,54,0.00,,,0.00,Wunderground v.1.15,2013-03-05 03:10:00,
2013-03-04 22:15:00,36.8,22.1,30.07,SSE,153,0.0,6.0,55,0.00,,,0.00,Wunderground v.1.15,2013-03-05 03:15:00,
2013-03-04 22:20:00,36.7,22.0,30.07,SSE,153,0.0,6.0,55,0.00,,,0.00,Wunderground v.1.15,2013-03-05 03:20:00,
2013-03-04 22:30:00,36.5,21.8,30.07,SSE,153,0.0,6.0,55,0.00,,,0.00,Wunderground v.1.15,2013-03-05 03:30:00,
2013-03-04 22:40:00,36.4,22.2,30.07,SSE,153,0.0,6.0,56,0.00,,,0.00,Wunderground v.1.15,2013-03-05 03:40:00,
2013-03-04 22:45:00,36.3,22.1,30.07,SSE,153,0.0,6.0,56,0.00,,,0.00,Wunderground v.1.15,2013-03-05 03:45:00,
2013-03-04 22:50:00,36.2,21.6,30.07,SSE,153,0.0,6.0,55,0.00,,,0.00,Wunderground v.1.15,2013-03-05 03:50:00,
2013-03-04 23:00:00,36.0,21.8,30.07,SSE,153,0.0,6.0,56,0.00,,,0.00,Wunderground v.1.15,2013-03-05 04:00:00,
2013-03-04 23:05:00,35.9,21.7,30.07,SSE,153,0.0,6.0,56,0.00,,,0.00,Wunderground v.1.15,2013-03-05 04:05:00,
2013-03-04 23:10:00,35.9,21.3,30.07,SSE,153,0.0,6.0,55,0.00,,,0.00,Wunderground v.1.15,2013-03-05 04:10:00,
2013-03-04 23:15:00,35.8,21.6,30.06,SSE,153,0.0,6.0,56,0.00,,,0.00,Wunderground v.1.15,2013-03-05 04:15:00,
2013-03-04 23:20:00,35.7,21.5,30.06,SSE,153,0.0,6.0,56,0.00,,,0.00,Wunderground v.1.15,2013-03-05 04:20:00,
2013-03-04 23:30:00,35.8,21.6,30.07,SSE,153,0.0,6.0,56,0.00,,,0.00,Wunderground v.1.15,2013-03-05 04:30:00,
2013-03-04 23:35:00,35.8,21.6,30.07,SSE,153,0.0,6.0,56,0.00,,,0.00,Wunderground v.1.15,2013-03-05 04:35:00,
2013-03-04 23:40:00,35.8,22.0,30.07,SSE,153,0.0,6.0,57,0.00,,,0.00,Wunderground v.1.15,2013-03-05 04:40:00,
2013-03-04 23:45:00,35.9,23.0,30.07,SSE,153,0.0,6.0,59,0.00,,,0.00,Wunderground v.1.15,2013-03-05 04:45:00,
2013-03-04 23:50:00,35.9,23.0,30.06,SSE,153,0.0,6.0,59,0.00,,,0.00,Wunderground v.1.15,2013-03-05 04:50:00,